• In Uzbekistan
  • List of Countries
  • For 7 days
  • Water Temperature
  • Satellite Maps
  • Weather Map
  • Weather Widgets
  • user-avatar
    Login

    Hourly Weather Duchan

    Today, 17 January, Wednesday

    Time Temperature Precipitation Wind Pressure Humidity
    00:00 +16°C° 0 mm 8 mps 760 mmHg 52%
    01:00 +16°C° 0 mm 8 mps 760 mmHg 53%
    02:00 +16°C° 0 mm 7 mps 760 mmHg 54%
    03:00 +16°C° 0 mm 7 mps 759 mmHg 54%
    04:00 +16°C° 0 mm 7 mps 759 mmHg 55%
    05:00 +16°C° 0 mm 7 mps 759 mmHg 56%
    06:00 +15°C° 0 mm 7 mps 759 mmHg 57%
    07:00 +16°C° 0 mm 7 mps 759 mmHg 54%
    08:00 +17°C° 0 mm 7 mps 760 mmHg 52%
    09:00 +18°C° 0 mm 7 mps 760 mmHg 49%
    10:00 +20°C° 0 mm 7 mps 759 mmHg 47%
    11:00 +20°C° 0 mm 7 mps 759 mmHg 45%
    12:00 +21°C° 0 mm 7 mps 759 mmHg 43%
    13:00 +21°C° 0 mm 6 mps 758 mmHg 42%
    14:00 +21°C° 0 mm 6 mps 758 mmHg 41%
    15:00 +21°C° 0 mm 6 mps 757 mmHg 41%
    16:00 +20°C° 0 mm 5 mps 758 mmHg 44%
    17:00 +19°C° 0 mm 4 mps 758 mmHg 46%
    18:00 +19°C° 0 mm 4 mps 758 mmHg 49%
    19:00 +18°C° 0 mm 4 mps 758 mmHg 50%
    20:00 +18°C° 0 mm 4 mps 758 mmHg 52%
    21:00 +18°C° 0 mm 4 mps 758 mmHg 53%
    22:00 +17°C° 0 mm 4 mps 758 mmHg 54%
    23:00 +17°C° 0 mm 4 mps 758 mmHg 56%

    Tomorrow, 18 January, Thursday

    Time Temperature Precipitation Wind Pressure Humidity
    00:00 +17°C° 0 mm 4 mps 758 mmHg 57%
    01:00 +16°C° 0 mm 3 mps 758 mmHg 58%
    02:00 +16°C° 0 mm 3 mps 758 mmHg 59%
    03:00 +16°C° 0 mm 3 mps 758 mmHg 60%
    04:00 +14°C° 0 mm 3 mps 758 mmHg 62%
    05:00 +15°C° 0 mm 2 mps 758 mmHg 64%
    06:00 +15°C° 0 mm 2 mps 759 mmHg 66%
    07:00 +16°C° 0 mm 2 mps 759 mmHg 60%
    08:00 +18°C° 0 mm 2 mps 760 mmHg 54%
    09:00 +19°C° 0 mm 2 mps 760 mmHg 48%
    10:00 +20°C° 0 mm 2 mps 760 mmHg 44%
    11:00 +21°C° 0 mm 2 mps 760 mmHg 41%
    12:00 +23°C° 0 mm 2 mps 759 mmHg 38%
    13:00 +23°C° 0 mm 2 mps 759 mmHg 37%
    14:00 +22°C° 0 mm 3 mps 759 mmHg 37%
    15:00 +22°C° 0 mm 3 mps 758 mmHg 36%
    16:00 +21°C° 0 mm 3 mps 758 mmHg 40%
    17:00 +20°C° 0 mm 2 mps 759 mmHg 44%
    18:00 +19°C° 0 mm 2 mps 759 mmHg 49%
    19:00 +19°C° 0 mm 2 mps 759 mmHg 51%
    20:00 +18°C° 0 mm 2 mps 759 mmHg 54%
    21:00 +18°C° 0 mm 2 mps 759 mmHg 57%
    22:00 +18°C° 0 mm 2 mps 759 mmHg 58%
    23:00 +17°C° 0 mm 2 mps 759 mmHg 59%

    Day after tomorrow, 19 January, Friday

    Time Temperature Precipitation Wind Pressure Humidity
    00:00 +17°C° 0 mm 2 mps 759 mmHg 61%
    01:00 +17°C° 0 mm 2 mps 759 mmHg 61%
    02:00 +17°C° 0 mm 2 mps 759 mmHg 61%
    03:00 +16°C° 0 mm 2 mps 758 mmHg 62%
    04:00 +16°C° 0 mm 3 mps 758 mmHg 62%
    05:00 +16°C° 0 mm 3 mps 759 mmHg 62%
    06:00 +16°C° 0 mm 3 mps 759 mmHg 61%
    07:00 +18°C° 0 mm 4 mps 759 mmHg 57%
    08:00 +19°C° 0 mm 4 mps 760 mmHg 52%
    09:00 +20°C° 0 mm 4 mps 760 mmHg 48%
    10:00 +22°C° 0 mm 4 mps 760 mmHg 43%
    11:00 +23°C° 0 mm 4 mps 759 mmHg 39%
    12:00 +26°C° 0 mm 4 mps 759 mmHg 34%
    13:00 +26°C° 0 mm 4 mps 759 mmHg 32%
    14:00 +26°C° 0 mm 4 mps 758 mmHg 30%
    15:00 +27°C° 0 mm 4 mps 758 mmHg 29%
    16:00 +26°C° 0 mm 5 mps 758 mmHg 35%
    17:00 +23°C° 0 mm 5 mps 758 mmHg 41%
    18:00 +22°C° 0 mm 5 mps 758 mmHg 47%
    19:00 +21°C° 0 mm 5 mps 759 mmHg 52%
    20:00 +21°C° 0 mm 5 mps 759 mmHg 57%
    21:00 +20°C° 0 mm 6 mps 759 mmHg 63%
    22:00 +20°C° 0 mm 5 mps 759 mmHg 65%
    23:00 +20°C° 0 mm 5 mps 759 mmHg 67%

    20 January, Saturday

    Time Temperature Precipitation Wind Pressure Humidity
    00:00 +19°C° 0 mm 5 mps 759 mmHg 69%
    01:00 +19°C° 0 mm 5 mps 759 mmHg 71%
    02:00 +19°C° 0 mm 5 mps 758 mmHg 74%
    03:00 +19°C° 0 mm 5 mps 758 mmHg 76%
    04:00 +17°C° 0 mm 5 mps 759 mmHg 77%
    05:00 +18°C° 0 mm 4 mps 759 mmHg 77%
    06:00 +18°C° 0 mm 4 mps 760 mmHg 77%
    07:00 +19°C° 0 mm 5 mps 761 mmHg 68%
    08:00 +20°C° 0 mm 6 mps 761 mmHg 58%
    09:00 +20°C° 0 mm 7 mps 762 mmHg 48%
    10:00 +21°C° 0 mm 8 mps 762 mmHg 47%
    11:00 +22°C° 0 mm 8 mps 762 mmHg 45%
    12:00 +22°C° 0 mm 9 mps 761 mmHg 43%
    13:00 +22°C° 0 mm 9 mps 761 mmHg 41%
    14:00 +22°C° 0 mm 9 mps 761 mmHg 39%
    15:00 +21°C° 0 mm 9 mps 760 mmHg 36%
    16:00 +19°C° 0 mm 9 mps 761 mmHg 38%
    17:00 +20°C° 0 mm 8 mps 761 mmHg 40%
    18:00 +18°C° 0 mm 8 mps 762 mmHg 41%
    19:00 +17°C° 0 mm 8 mps 762 mmHg 41%
    20:00 +17°C° 0 mm 8 mps 763 mmHg 42%
    21:00 +16°C° 0 mm 8 mps 763 mmHg 42%
    22:00 +16°C° 0 mm 8 mps 763 mmHg 42%
    23:00 +16°C° 0 mm 8 mps 762 mmHg 42%

    21 January, Sunday

    Time Temperature Precipitation Wind Pressure Humidity
    00:00 +15°C° 0 mm 8 mps 762 mmHg 42%
    01:00 +15°C° 0 mm 8 mps 762 mmHg 42%
    02:00 +15°C° 0 mm 9 mps 762 mmHg 41%
    03:00 +15°C° 0 mm 9 mps 762 mmHg 41%
    04:00 +15°C° 0 mm 9 mps 762 mmHg 42%
    05:00 +13°C° 0 mm 9 mps 762 mmHg 44%
    06:00 +13°C° 0 mm 9 mps 762 mmHg 45%
    07:00 +15°C° 0 mm 9 mps 763 mmHg 45%
    08:00 +15°C° 0 mm 9 mps 763 mmHg 44%
    09:00 +16°C° 0 mm 10 mps 763 mmHg 44%
    10:00 +16°C° 0 mm 10 mps 763 mmHg 43%
    11:00 +17°C° 0 mm 9 mps 762 mmHg 43%
    12:00 +18°C° 0 mm 9 mps 762 mmHg 42%
    13:00 +18°C° 0 mm 9 mps 761 mmHg 42%
    14:00 +18°C° 0 mm 9 mps 761 mmHg 41%
    15:00 +18°C° 0 mm 9 mps 761 mmHg 40%
    16:00 +17°C° 0 mm 9 mps 761 mmHg 43%
    17:00 +17°C° 0 mm 8 mps 761 mmHg 45%
    18:00 +16°C° 0 mm 8 mps 761 mmHg 48%
    19:00 +16°C° 0 mm 7 mps 761 mmHg 49%
    20:00 +15°C° 0 mm 7 mps 762 mmHg 51%
    21:00 +15°C° 0 mm 7 mps 762 mmHg 52%
    22:00 +15°C° 0 mm 7 mps 761 mmHg 53%
    23:00 +15°C° 0 mm 7 mps 761 mmHg 54%

    22 January, Monday

    Time Temperature Precipitation Wind Pressure Humidity
    00:00 +15°C° 0 mm 7 mps 761 mmHg 55%
    01:00 +14°C° 0 mm 7 mps 760 mmHg 56%
    02:00 +14°C° 0 mm 7 mps 760 mmHg 57%
    03:00 +14°C° 0 mm 7 mps 760 mmHg 58%
    04:00 +14°C° 0 mm 7 mps 760 mmHg 58%
    05:00 +14°C° 0 mm 7 mps 760 mmHg 58%
    06:00 +14°C° 0 mm 7 mps 760 mmHg 57%
    07:00 +15°C° 0 mm 7 mps 761 mmHg 53%
    08:00 +16°C° 0 mm 7 mps 761 mmHg 49%
    09:00 +17°C° 0 mm 8 mps 761 mmHg 46%
    10:00 +18°C° 0 mm 7 mps 761 mmHg 43%
    11:00 +18°C° 0 mm 7 mps 760 mmHg 41%
    12:00 +20°C° 0 mm 7 mps 759 mmHg 39%
    13:00 +20°C° 0 mm 6 mps 759 mmHg 39%
    14:00 +21°C° 0 mm 6 mps 759 mmHg 39%
    15:00 +21°C° 0 mm 5 mps 758 mmHg 39%
    16:00 +20°C° 0 mm 5 mps 758 mmHg 42%
    17:00 +19°C° 0 mm 4 mps 758 mmHg 46%
    18:00 +18°C° 0 mm 3 mps 759 mmHg 50%
    19:00 +17°C° 0 mm 3 mps 759 mmHg 52%
    20:00 +17°C° 0 mm 2 mps 759 mmHg 54%
    21:00 +16°C° 0 mm 2 mps 759 mmHg 56%
    22:00 +16°C° 0 mm 2 mps 759 mmHg 57%
    23:00 +16°C° 0 mm 2 mps 758 mmHg 57%
    Show more